Vertical_Velocity
-4 -0 1 -2 -0 -3 1 -5 0 -4 -6 -2 -2 -2 -1 3 4 2 4 3 -2 -1 -1 -3 0 1 2 2 -1 2 -3 1 -14 11 -4 2 2 4 6 2 0 -3 9
-2 3 6 1 7 6 10 2 14 5 2 6 3 -1 0 -3 -1 4 -0 0 2 4 5 0 -3 -4 -2 -1 2 1 -2 -3 -10 1 8 4 4 2 1 0 6 1 -4
-3 2 3 1 0 -7 2 -3 2 -0 -3 -0 1 -3 -3 -1 5 3 1 2 0 -2 -3 -1 4 1 2 1 -1 -2 1 -2 -0 -10 3 2 3 4 -1 -2 -1 11 11
-4 -7 1 -2 -1 -4 -1 -7 -5 2 -3 3 -2 -2 -0 -2 2 -1 -0 0 -2 -1 -1 -2 -2 -3 -3 -1 1 -2 -2 -1 -1 -3 -5 1 -2 5 1 -3 -4 -3 5
-3 -8 -10 1 5 1 3 0 9 -5 2 -3 -0 2 -2 -0 -2 -2 1 0 -2 0 -0 -0 0 -2 -1 -5 -7 3 1 1 2 -1 -3 1 5 6 -0 -0 2 1 7
7 6 -6 -7 -5 -4 0 -1 23 3 -9 4 -5 1 -5 -1 -1 1 1 -1 -3 -4 -1 2 1 0 -0 1 2 -5 -3 1 -1 -4 -6 -3 5 -2 -3 -3 -4 -1 -9
4 1 -4 2 5 8 -0 2 6 1 -2 -0 -0 -2 -6 -2 -1 3 -2 -1 -2 -1 -4 -4 -1 -2 -1 -0 0 2 0 0 -0 -4 -2 2 -1 -3 -6 -3 1 -2 2
3 -1 -2 -8 2 3 3 4 0 -2 2 -3 1 -1 -3 -6 -2 -9 -6 -5 -3 -3 -4 -4 -1 1 2 1 -1 1 -0 -1 -1 -4 2 -1 -1 -2 0 -0 -3 -1 2
1 -1 1 -2 -4 1 1 0 -2 -0 -3 6 1 -3 -2 -2 -0 3 -4 2 3 -1 -3 -3 -2 1 0 -3 -1 0 2 -0 -3 1 2 -3 -3 -2 -4 -3 -0 -3 2
1 -3 -2 -6 -2 -2 -0 1 -3 -4 2 2 1 -3 -3 1 1 -0 -0 2 1 -0 0 -1 -0 0 1 -1 1 1 1 -2 -1 -1 -2 0 -0 1 -0 1 1 4 2
-2 -2 -2 -1 -0 -0 0 -2 -3 1 1 1 -4 -2 -2 -2 -3 -1 -1 -1 -1 1 1 4 1 1 2 1 0 -0 -0 -1 -1 1 1 0 1 1 1 3 -0 -1 -2
-4 -1 2 0 0 -0 -2 -1 1 1 -1 1 1 -0 -3 -4 -3 -2 -2 -3 -2 0 1 0 1 1 0 1 1 1 -0 -0 1 1 1 1 1 1 0 -0 -0 -0 1
-1 -1 -1 1 -0 0 -2 1 -0 -1 -0 -0 -1 -0 1 1 -1 -2 -4 -1 -1 0 -0 1 2 1 2 2 1 2 2 3 2 2 2 1 1 1 -0 -1 0 1 -1
-2 -1 -1 0 0 -1 -1 -2 -1 -0 -2 -2 -1 -2 1 1 -0 0 -1 -2 -2 -0 -1 0 2 2 3 3 2 2 2 2 1 1 1 1 0 1 1 1 1 -0 0
-1 -2 -1 -2 -0 0 -1 -0 1 2 -1 0 -1 -2 1 -1 -1 -2 1 2 1 1 -1 0 0 1 2 2 1 2 3 3 3 3 3 2 2 1 1 1 2 2 1
-1 -1 -0 -0 0 1 -2 0 -0 0 -0 -4 -2 -3 -4 -3 -2 -2 -2 -1 -1 -1 -0 -0 1 1 3 1 2 3 3 3 3 4 3 3 2 2 2 2 1 1 -0
-2 -2 -0 -1 -2 0 -0 1 4 -3 -1 1 -2 -1 -1 -1 -1 -1 1 -1 -1 -1 -1 -0 0 1 1 1 1 4 2 3 3 3 3 2 2 2 2 2 1 1 2
3 -1 -0 1 0 -0 -0 0 0 2 2 2 2 1 -1 0 1 -0 -2 -2 -0 -1 -1 -1 -1 0 0 -0 -0 1 3 1 -0 -1 -1 0 1 1 1 1 1 1 0
0 -1 -1 -1 -0 0 1 -0 0 -0 -1 -2 -2 -0 -0 -0 1 1 -1 -0 -1 -0 -1 -1 -1 -0 -1 0 -1 -1 -1 0 1 -1 -1 -1 0 -0 0 1 1 1 -0
-0 -0 0 1 0 0 -0 -0 1 -0 -1 -1 -3 -4 -1 -2 -2 -1 -1 -1 -0 -0 1 -1 -1 -1 -1 -1 0 -0 -0 -0 -0 0 -0 -0 -0 -1 -1 -1 -0 1 1
-1 1 0 -1 -0 0 -0 -0 0 -0 -0 -1 -1 -2 -1 -1 -1 -0 -1 -1 -1 -1 -1 1 -0 -1 -1 -1 -1 1 1 0 0 1 1 1 1 -0 -1 0 -1 -1 1
1 -1 -2 -1 -1 -0 -0 0 -0 -0 -1 -2 -1 -0 -2 -2 -1 -1 -0 1 -0 -0 -1 -1 0 1 -0 -1 -1 -0 1 0 0 0 -1 0 1 1 1 1 -1 -0 -0
1 -1 -1 -0 0 0 -0 -0 -1 -1 -1 -1 -1 -2 1 0 2 0 -0 -0 -0 -0 -1 -1 -2 -0 1 1 -0 -0 -0 -0 -0 -0 -0 -0 0 -0 1 -0 -1 -1 0
1 -0 -0 1 0 0 -1 -1 -1 -1 -1 -1 -2 -3 -3 -3 -2 -1 0 -1 -2 -1 -1 -1 -2 -2 -0 1 1 1 0 0 -0 -1 -0 -0 0 -0 1 -0 -1 -0 -1
-1 -1 -0 -0 -0 -1 -1 -1 -1 -1 -1 -1 -1 -2 -3 -3 -2 -0 0 0 0 -0 -2 -1 -1 -1 -1 -0 0 1 2 2 1 1 0 -0 -0 -1 -0 1 -0 -0 0
0 1 1 1 -0 0 -0 -1 -1 -1 -0 -1 -1 -2 -3 -2 -2 -1 -1 -2 -2 -2 -2 -2 -1 -1 -0 0 -0 0 0 1 1 1 1 0 0 1 0 0 1 0 -0
Height
5682 5670 5658 5647 5634 5620 5610 5597 5585 5571 5557 5545 5533 5524 5512 5501 5490 5481 5473 5466 5459 5454 5449 5445 5443 5439 5437 5435 5432 5431 5430 5429 5431 5438 5438 5441 5444 5446 5448 5450 5454 5458 5467
5670 5658 5645 5630 5616 5602 5590 5576 5565 5548 5537 5526 5514 5500 5488 5478 5469 5462 5456 5450 5445 5439 5434 5428 5423 5419 5417 5415 5414 5414 5413 5414 5415 5421 5424 5428 5429 5432 5435 5438 5442 5446 5450
5650 5638 5624 5608 5594 5580 5568 5553 5541 5524 5513 5505 5492 5479 5469 5461 5454 5447 5442 5437 5429 5422 5416 5410 5404 5399 5397 5394 5391 5392 5395 5397 5399 5402 5408 5411 5415 5417 5419 5423 5427 5433 5436
5629 5616 5605 5591 5575 5561 5545 5530 5517 5506 5496 5490 5479 5464 5455 5448 5442 5436 5430 5422 5414 5406 5398 5391 5385 5381 5377 5374 5373 5372 5374 5377 5380 5385 5390 5394 5399 5402 5404 5407 5414 5418 5423
5609 5595 5587 5573 5556 5540 5525 5512 5502 5491 5482 5472 5467 5456 5447 5440 5432 5424 5417 5408 5399 5390 5382 5375 5369 5364 5360 5356 5354 5357 5357 5359 5362 5366 5372 5378 5384 5387 5390 5394 5400 5404 5409
5592 5575 5561 5550 5536 5521 5508 5497 5487 5476 5469 5463 5457 5447 5438 5429 5421 5414 5404 5393 5383 5375 5367 5361 5353 5348 5343 5340 5339 5338 5340 5341 5344 5348 5354 5362 5368 5372 5376 5380 5385 5389 5395
5577 5560 5544 5532 5517 5504 5491 5483 5473 5465 5459 5454 5447 5437 5428 5419 5410 5402 5390 5380 5370 5361 5353 5346 5339 5333 5328 5326 5325 5325 5326 5327 5329 5332 5339 5347 5354 5360 5365 5370 5374 5379 5384
5559 5541 5523 5512 5500 5487 5475 5467 5460 5454 5450 5445 5437 5428 5418 5408 5399 5387 5378 5368 5359 5350 5341 5333 5325 5319 5314 5312 5312 5312 5313 5314 5315 5319 5326 5335 5342 5349 5355 5360 5364 5369 5374
5538 5524 5508 5492 5482 5471 5460 5454 5450 5446 5441 5437 5429 5420 5410 5400 5390 5381 5370 5362 5353 5344 5334 5325 5316 5308 5302 5298 5298 5299 5301 5303 5305 5309 5316 5325 5332 5339 5345 5350 5355 5359 5364
5521 5505 5492 5479 5468 5459 5451 5447 5442 5438 5435 5429 5421 5412 5403 5393 5383 5373 5365 5357 5348 5339 5329 5320 5311 5303 5296 5292 5291 5291 5293 5295 5298 5302 5309 5318 5325 5332 5338 5343 5347 5351 5354
5504 5490 5478 5468 5460 5452 5446 5441 5437 5433 5428 5422 5414 5405 5396 5385 5375 5367 5359 5352 5344 5336 5326 5317 5308 5301 5295 5290 5287 5286 5287 5289 5292 5298 5306 5313 5320 5326 5331 5336 5340 5343 5345
5488 5478 5468 5459 5452 5447 5442 5436 5432 5428 5422 5415 5408 5399 5388 5378 5369 5361 5354 5348 5340 5333 5324 5315 5307 5300 5295 5291 5287 5285 5286 5288 5293 5299 5305 5311 5317 5322 5326 5330 5334 5337 5339
5475 5465 5457 5451 5445 5441 5436 5431 5426 5421 5416 5409 5402 5393 5383 5374 5365 5357 5350 5345 5338 5331 5324 5316 5308 5302 5297 5293 5290 5289 5290 5292 5296 5300 5305 5310 5315 5319 5323 5326 5328 5330 5331
5463 5455 5448 5443 5439 5434 5429 5423 5419 5415 5409 5402 5396 5387 5378 5370 5361 5354 5348 5343 5337 5332 5326 5320 5314 5308 5303 5299 5296 5295 5295 5297 5300 5303 5307 5311 5314 5317 5320 5322 5325 5326 5327
5453 5446 5441 5436 5433 5428 5422 5417 5413 5408 5403 5397 5390 5382 5373 5365 5357 5350 5345 5342 5337 5333 5328 5323 5318 5313 5308 5304 5302 5300 5301 5302 5304 5306 5309 5312 5315 5318 5320 5322 5323 5324 5324
5444 5438 5434 5430 5427 5422 5416 5411 5406 5401 5396 5390 5384 5376 5367 5360 5353 5347 5342 5339 5335 5332 5329 5325 5321 5317 5314 5311 5308 5307 5306 5307 5308 5310 5312 5315 5317 5319 5320 5321 5322 5322 5322
5435 5430 5427 5423 5419 5415 5410 5405 5400 5395 5390 5385 5379 5372 5363 5357 5350 5344 5339 5335 5333 5330 5328 5325 5323 5320 5318 5315 5313 5312 5311 5311 5311 5313 5315 5316 5317 5319 5319 5320 5320 5320 5320
5427 5423 5419 5416 5412 5408 5403 5398 5394 5390 5385 5380 5374 5367 5359 5353 5347 5341 5335 5331 5329 5328 5326 5324 5322 5321 5319 5317 5315 5314 5314 5314 5314 5315 5316 5317 5317 5318 5318 5318 5318 5318 5317
5420 5416 5412 5408 5404 5401 5397 5392 5388 5383 5378 5373 5368 5362 5355 5347 5342 5337 5332 5328 5325 5324 5323 5321 5320 5319 5318 5316 5315 5314 5314 5314 5314 5315 5315 5315 5316 5316 5316 5316 5316 5316 5315
5413 5409 5406 5402 5399 5395 5390 5386 5382 5377 5373 5368 5362 5355 5349 5342 5336 5332 5328 5324 5321 5319 5318 5317 5317 5316 5315 5314 5313 5312 5312 5312 5312 5312 5312 5313 5313 5313 5314 5313 5313 5313 5313
5407 5404 5400 5396 5392 5388 5385 5381 5377 5372 5367 5362 5356 5350 5343 5336 5330 5327 5323 5320 5317 5314 5312 5311 5311 5311 5311 5310 5310 5309 5309 5309 5308 5308 5308 5309 5309 5309 5309 5309 5309 5309 5309
5402 5398 5393 5390 5386 5382 5379 5375 5371 5367 5362 5356 5350 5344 5337 5331 5325 5320 5318 5315 5312 5309 5307 5305 5304 5303 5304 5304 5304 5304 5304 5304 5304 5304 5304 5304 5304 5304 5304 5304 5304 5304 5304
5396 5391 5388 5384 5382 5378 5373 5369 5365 5361 5356 5351 5345 5339 5332 5326 5320 5316 5313 5310 5307 5304 5301 5299 5297 5295 5294 5294 5295 5296 5297 5297 5298 5298 5298 5298 5298 5298 5298 5298 5298 5298 5298
5389 5385 5382 5379 5376 5372 5368 5363 5359 5355 5350 5345 5340 5334 5327 5321 5315 5311 5308 5305 5302 5299 5295 5292 5290 5288 5286 5285 5284 5285 5286 5288 5289 5290 5290 5291 5291 5291 5291 5291 5291 5291 5291
5382 5379 5377 5374 5370 5366 5362 5357 5353 5349 5345 5340 5335 5330 5323 5317 5312 5307 5304 5300 5297 5293 5289 5285 5282 5279 5278 5276 5275 5275 5275 5276 5278 5279 5281 5282 5282 5283 5284 5284 5283 5283 5284
5377 5374 5371 5367 5363 5359 5355 5351 5347 5343 5339 5335 5330 5325 5320 5314 5308 5303 5299 5295 5291 5286 5282 5277 5274 5271 5269 5268 5267 5266 5266 5266 5267 5268 5270 5271 5272 5273 5274 5274 5275 5275 5275